Location: Oshawa
(43.9000°N, 78.8670°W)
Time: 03:36:43
(UTC-05:00)

Daily predictions for brighter satellites

Satellite Brightness Start Highest point End
(mag) Time Altitude Azimuth Time Altitude Azimuth Time Altitude Azimuth
USA 229 DEB 4.4 04:08:19 50° E 04:08:19 50° E 04:14:00 10° SE
USA 229 4.4 04:08:22 51° E 04:08:22 51° E 04:14:05 10° SE
Tsikada Rocket 4.0 04:49:33 79° NE 04:49:49 81° E 04:56:08 10° S
USA 234 4.2 04:50:48 10° E 04:56:45 38° NNE 04:58:34 32° NNW
NOSS 3-1 (C) 4.4 04:57:38 34° NNW 05:01:07 60° NE 05:09:16 10° SE
Cosmos 2237 Rocket 4.4 05:09:28 13° S 05:09:28 13° S 05:10:02 10° S
SKYMED 2 4.2 05:04:46 10° SSE 05:08:59 53° ENE 05:09:13 52° ENE
SL-16 R/B 2.1 05:09:59 81° SSW 05:09:59 81° SSW 05:15:27 10° SSE
Cosmos 1864 Rocket 4.3 05:13:39 68° WNW 05:13:39 68° WNW 05:19:36 10° N
Cosmos 1725 Rocket 3.8 05:13:50 68° W 05:13:58 68° W 05:20:16 10° N
CZ-3 Stage 3 3.8 05:13:13 18° S 05:14:30 20° SSE 05:21:01 10° ESE
Cosmos 2297 Rocket 2.6 05:19:29 46° NNW 05:19:29 46° NNW 05:23:52 10° NNE
Ariane Rocket 4.5 05:15:12 10° NNE 05:19:56 37° E 05:24:38 10° SSE
Cosmos 2058 4.2 05:20:01 16° NNE 05:22:53 39° ENE 05:26:47 10° SSE
Cosmos 2221 4.3 05:21:55 10° SSE 05:25:45 31° E 05:29:35 10° NNE
Feng Yun 1-1 Rocket 4.1 05:23:13 10° N 05:28:34 59° WNW 05:28:45 59° W
Cosmos 2227 Rocket 3.2 05:32:56 29° NNW 05:32:56 29° NNW 05:36:25 10° N
Meteor 1-11 4.5 05:28:33 10° N 05:34:23 72° ENE 05:40:10 10° SSE
Meteor 1-16 Rocket 4.2 05:32:02 10° S 05:37:26 77° E 05:42:45 10° NNE
Cosmos 1271 Rocket 3.2 05:35:50 10° S 05:39:35 58° E 05:43:19 10° NNE
Meteor 1-28 Rocket 3.4 05:36:03 10° SSE 05:39:46 70° ENE 05:41:05 38° N
DMSP B5D1-3 4.4 05:35:07 10° SSE 05:40:15 87° ENE 05:45:24 10° NNW
SeaSat 1 3.6 05:36:47 10° N 05:39:40 27° NNW 05:39:40 27° NNW
Cosmos 1340 Rocket 3.1 05:39:37 24° N 05:41:51 64° E 05:45:46 10° SSE
Cosmos 304 Rocket 4.0 05:43:26 48° WSW 05:43:26 48° WSW 05:47:42 10° S
Cosmos 1626 4.0 05:43:08 10° NNE 05:46:29 30° ENE 05:49:49 10° SE
ATLAS CENTAUR R/B 4.1 05:45:24 14° N 05:46:59 17° NNE 05:51:16 10° ENE
Cosmos 968 Rocket 3.4 05:44:03 14° SSW 05:48:31 66° WNW 05:53:46 10° NNE
SL-14 R/B 3.2 05:48:34 44° NNW 05:49:44 72° W 05:53:46 10° S
Cosmos 2151 2.8 05:49:21 32° NNW 05:51:13 72° W 05:55:26 10° S
Cosmos 1943 4.4 05:46:18 10° NNW 05:51:42 41° ENE 05:57:03 10° SE
Cosmos 1842 Rocket 3.7 05:55:30 45° WNW 05:55:30 45° WNW 05:59:30 10° N
COSMO-SKYMED 1 2.8 05:52:50 10° S 05:57:00 46° W 05:57:47 41° WNW
SL-8 R/B 3.7 05:55:44 40° WNW 05:57:28 80° NNE 06:02:17 10° ESE
USA 229 DEB 4.4 05:55:49 30° W 05:57:33 34° WSW 06:03:52 10° S
USA 229 4.4 05:55:52 30° W 05:57:40 34° WSW 06:03:59 10° S
ISS -1.9 05:58:59 26° SSW 05:58:59 26° SSW 06:01:12 10° SSE
Cosmos 773 Rocket 3.9 05:54:51 16° NNW 05:59:07 83° WSW 06:04:25 10° SSE
NOAA 6 4.2 05:55:41 10° N 06:00:38 46° WNW 06:05:35 10° SW
Cosmos 2233 Rocket 4.2 05:56:05 10° SSW 06:02:04 47° WNW 06:08:08 10° N
Cosmos 1805 Rocket 3.9 05:58:29 10° N 06:02:55 68° E 06:07:17 10° SSE
Meteor 2-1 Rocket 4.2 06:01:41 10° S 06:07:18 88° E 06:13:05 10° N
CSL-04 Debris 4.4 06:02:21 10° NNE 06:07:52 73° ESE 06:13:18 10° S
Cosmos 1500 Rocket 4.4 06:10:34 29° W 06:10:34 29° W 06:14:09 10° SSW
NOSS 3-1 (A) 4.0 06:05:16 16° NW 06:11:39 79° WSW 06:20:01 10° SSE
Cosmos 1603 3.6 06:09:07 15° NNW 06:13:52 68° WSW 06:19:28 10° SSE
Cosmos 2263 Rocket 3.8 06:13:09 10° S 06:18:18 37° ESE 06:23:29 10° NE
Cosmos 1184 Rocket 3.2 06:15:06 10° N 06:18:24 64° ENE 06:21:41 10° SSE
YAOGAN 3 4.5 06:15:39 10° NNE 06:20:03 85° WNW 06:24:24 10° SSW
ATLAS 2AS CENTAUR R/B 3.8 06:12:30 10° NNW 06:20:22 49° NE 06:27:45 10° ESE
CZ-4 R/B 2.0 06:17:07 10° NNE 06:21:08 59° E 06:25:11 10° S
PSLV R/B 4.2 06:20:23 19° SW 06:22:28 42° S 06:25:41 10° E
Cosmos 2034 Rocket 4.0 06:17:27 10° S 06:23:39 89° E 06:29:57 10° N
Cosmos 1777 Rocket 4.0 06:20:26 10° SW 06:25:34 59° WNW 06:30:44 10° NNE
Sich 1 3.2 06:21:34 10° N 06:25:58 77° E 06:30:16 10° SSE
Cosmos 1908 4.1 06:22:43 10° S 06:26:25 51° E 06:30:09 10° NNE
Nadezhda 4 Rocket 4.2 06:21:31 10° N 06:27:53 76° E 06:34:11 10° SSE
SL-12 R/B (Aux Motor) 4.5 06:24:32 11° WSW 06:29:31 83° SSE 06:31:53 10° ENE
Cosmos 1633 Rocket 3.2 06:25:16 10° N 06:29:38 74° E 06:33:57 10° SSE
CSL-04 Rocket 3.6 06:30:15 10° N 06:35:28 57° WNW 06:40:36 10° SSW
Cosmos 292 Rocket 3.8 06:34:18 10° NNW 06:39:00 58° WSW 06:43:42 10° S
USA 234 3.3 06:32:45 10° SE 06:39:19 89° NE 06:45:55 10° NW
ERBS 3.9 06:38:53 17° W 06:40:12 21° SW 06:42:50 10° S
Genesis I 4.2 06:39:10 18° WNW 06:41:20 29° WSW 06:44:45 10° S
Coronas F rocket 0.8 06:40:37 10° N 06:43:01 78° W 06:45:24 10° S
Cosmos 2227 4.4 06:39:17 10° SW 06:44:40 46° WNW 06:50:05 10° NNE
Cosmos 1092 Rocket 4.3 06:39:17 10° N 06:45:37 75° E 06:51:50 10° SSE
IDEFIX/ARIANE 42P 2.6 06:41:43 10° NNE 06:47:01 84° WNW 06:52:17 10° SSW
MSX 4.4 06:41:32 10° NNE 06:47:17 64° ESE 06:53:00 10° S
SMAP 3.1 06:43:37 10° NNE 06:48:18 90° NW 06:52:58 10° SSW
Cosmos 1726 4.4 06:45:39 10° SSE 06:48:49 28° E 06:52:01 10° NNE
YAOGAN 1 2.7 06:45:01 10° NNE 06:49:22 83° ESE 06:53:42 10° SSW
SL-16 R/B 3.9 06:51:56 11° W 06:52:57 11° W 06:54:38 10° WSW
Cosmos 1464 Rocket 4.4 06:48:08 10° SW 06:54:04 41° WNW 06:59:59 10° N
Tiangong 2 3.1 06:55:19 10° SW 06:58:03 28° SSE 07:00:48 10° E
Ariane Rocket 3.8 06:54:23 10° N 06:58:45 29° WNW 07:03:06 10° WSW
Cosmos 2058 4.4 06:56:52 10° NW 06:59:30 17° W 07:02:08 10° SW
Meteor 1-29 3.0 06:56:31 10° SSE 07:00:01 86° ENE 07:03:32 10° NNW
Cosmos 1666 Rocket 4.0 06:57:23 10° NNW 07:01:34 41° W 07:05:46 10° SSW
Cosmos 1703 4.4 06:58:30 10° NW 07:01:42 24° W 07:04:54 10° SW
Cosmos 2221 3.6 06:59:54 10° SW 07:03:22 23° WNW 07:06:50 10° NNW
Cosmos 2297 Rocket 4.0 07:01:49 10° WNW 07:03:41 11° NW 07:05:33 10° NNW
CZ-2C R/B 2.4 07:00:51 10° N 07:05:19 52° WNW 07:09:45 10° SSW
Cosmos 1680 Rocket 4.1 07:02:20 10° NW 07:07:16 40° WSW 07:12:11 10° S
MOS 1 4.3 07:02:28 10° NNE 07:08:11 78° WNW 07:13:52 10° SSW
Iridium 4 Rocket 3.3 07:07:58 10° N 07:12:15 78° E 07:16:48 10° S
Cosmos 1898 Rocket 3.7 07:07:05 10° SSW 07:12:20 79° ESE 07:17:39 10° NNE
Cosmos 1933 Rocket 3.6 07:08:47 10° N 07:13:16 82° W 07:17:41 10° S
Cosmos 2344 3.8 07:08:16 10° SW 07:15:57 88° NW 07:24:48 10° NE
